Location: Newark
(33.6439°N, 114.9881°W)
Time: 22:25:43
(UTC+00:00)

A-11 Canister half - Pass Details

Date: 23 August 2019
Orbit: 1527 x 1682 km, 47.3° (Epoch: 15 September)

Event Time Altitude Azimuth Distance (km) Brightness Sun altitude
Rises 18:04:36 0° 222° (SW) 4,786 11.6 58.4°
Reaches altitude 10° 18:07:39 10° 221° (SW) 3,823 11.2 58.9°
Maximum altitude 18:17:24 74° 138° (SE) 1,704 11.4 60.4°
Drops below altitude 10° 18:27:28 10° 56° (NE) 3,936 11.3 61.9°
Sets 18:30:39 0° 55° (NE) 4,933 11.7 62.3°
